Regional Weather Roundup
Issued by NWS

Home | Current Version | Previous Version | Text Only | Print | Product List | Glossary On
Versions: 1 2 3 4 5 6 7 8 9 10 11 12 13 14 15 16 17 18 19 20 21 22 23 24 25 26 27 28 29 30 31 32 33 34 35 36 37 38 39 40 41 42 43 44 45 46 47 48 49 50
000
ASUS44 KFWD 221815
RWRTX
NORTH TEXAS HOURLY WEATHER ROUNDUP
NATIONAL WEATHER SERVICE FORT WORTH TX
1200 PM CST MON JAN 22 2018

NOTE: "FAIR" INDICATES FEW OR NO CLOUDS BELOW 12,000 FEET WITH NO
SIGNIFICANT WEATHER AND/OR OBSTRUCTIONS TO VISIBILITY.

TXZ118-119-221900-
DALLAS/FORT WORTH METROPLEX

CITY           SKY/WX    TMP DP  RH WIND       PRES   REMARKS
DFW AIRPORT    FAIR      57  21  24 W23G32    30.02F
6HR MIN TEMP:  45; 6HR MAX TEMP:  57;

DALLAS LOVE    FAIR      56  22  26 NW18G29   30.03F
6HR MIN TEMP:  45; 6HR MAX TEMP:  56;

FTW MEACHAM    FAIR      57  21  24 NW24G36   30.04F
6HR MIN TEMP:  43; 6HR MAX TEMP:  57;

DAL-EXECUTIVE  FAIR      68  23  18 W17G30    30.03F
6HR MIN TEMP:  45; 6HR MAX TEMP:  68;

FTW-ALLIANCE   FAIR      56  21  25 W17G33    30.04F
6HR MIN TEMP:  41; 6HR MAX TEMP:  56;

FTW-NAS-JRB    FAIR      56  20  24 NW18      30.05F
6HR MIN TEMP:  42; 6HR MAX TEMP:  56;

FTW-SPINKS     SUNNY     57  21  24 W21G36    30.08F
ARLINGTON      FAIR      55  20  25 W20G26    30.05F
6HR MIN TEMP:  43; 6HR MAX TEMP:  55;

GRAND PRAIRIE  SUNNY     55  19  24 W18G28    30.06
ADDISON        SUNNY     55  21  26 W16G24    30.03F
MESQUITE       SUNNY     55  21  26 W23G30    30.04F
LANCASTER      FAIR      55  24  30 NW18G26   30.06F
6HR MIN TEMP:  43; 6HR MAX TEMP:  55;

$$

TXZ091>094-102>105-117-120-121-131>134-221900-
NORTH CENTRAL TEXAS

CITY           SKY/WX    TMP DP  RH WIND       PRES   REMARKS
SHRMAN/DENISON FAIR      52  24  34 W28G36    29.99F
6HR MIN TEMP:  40; 6HR MAX TEMP:  52;

GAINESVILLE    FAIR      52  21  29 NW22G33   30.02F
6HR MIN TEMP:  39; 6HR MAX TEMP:  52;

BOWIE          FAIR      51  21  30 W17G32    30.03F
6HR MIN TEMP:  38; 6HR MAX TEMP:  51;

BRIDGEPORT     FAIR      53  21  28 NW18G31   30.07F
6HR MIN TEMP:  41; 6HR MAX TEMP:  53;

DECATUR        FAIR      52  20  28 W22G33    30.02
DENTON         FAIR      54  22  28 NW25G36   30.02F
6HR MIN TEMP:  40; 6HR MAX TEMP:  55;

MCKINNEY       FAIR      53  28  38 W22G30    30.02F
6HR MIN TEMP:  41; 6HR MAX TEMP:  53;

BONHAM         FAIR      51  25  35 W20G28    29.98F
6HR MIN TEMP:  38; 6HR MAX TEMP:  51;

GREENVILLE     FAIR      55  27  33 W21G30    30.01F
ROCKWALL       FAIR      53  26  34 W20G29    30.03F
6HR MIN TEMP:  43; 6HR MAX TEMP:  53;

TERRELL        FAIR      55  26  32 W16G28    30.04F
6HR MIN TEMP:  41; 6HR MAX TEMP:  55;

WAXAHACHIE     FAIR      55  26  32 W16G26    30.07F
6HR MIN TEMP:  41; 6HR MAX TEMP:  55;

CLEBURNE       FAIR      55  19  24 W17G30    30.09F
GRANBURY       FAIR      57  19  23 W21G32    30.10F
6HR MIN TEMP:  39; 6HR MAX TEMP:  57;

$$

TXZ083>090-098>101-113>116-127>130-139>142-154-155-221900-
WESTERN NORTH TEXAS

CITY           SKY/WX    TMP DP  RH WIND       PRES   REMARKS
WICHITA FALLS  FAIR      52  20  28 NW29G38   30.03S
6HR MIN TEMP:  36; 6HR MAX TEMP:  52;

WF-KICKAPOO    FAIR      51  20  30 NW17G31   30.07S
6HR MIN TEMP:  38; 6HR MAX TEMP:  51;

VERNON         FAIR      53  12  19 NW32G38   30.06S
ABILENE        FAIR      52  17  25 NW21G28   30.14F
6HR MIN TEMP:  34; 6HR MAX TEMP:  53;

ABILENE-DYESS  FAIR      53  18  24 NW21G26   30.14F
6HR MIN TEMP:  35; 6HR MAX TEMP:  53;

GRAHAM           N/A     54  20  26 W23G32    30.08F
6HR MIN TEMP:  37; 6HR MAX TEMP:  54;

BRECKENRIDGE   FAIR      56  17  21 NW20G33   30.12F
6HR MIN TEMP:  37; 6HR MAX TEMP:  56;

CISCO          FAIR      54  16  22 NW20G29   30.13F
EASTLAND       FAIR      53  17  23 NW20G33   30.11F
6HR MIN TEMP:  37; 6HR MAX TEMP:  54;

RANGER         FAIR      52  19  28 NW20G29   30.11F
MINERAL WELLS  FAIR      56  18  22 W23G30    30.06F
6HR MIN TEMP:  38; 6HR MAX TEMP:  56; 6HR PCP: TRACE;

STEPHENVILLE   FAIR      56  16  21 NW17G25   30.13F
6HR MIN TEMP:  40; 6HR MAX TEMP:  56;

COMANCHE       FAIR      55  21  26 NW21G29   30.13F
6HR MIN TEMP:  38; 6HR MAX TEMP:  55;

COLEMAN        FAIR      55  18  23 NW18      30.15F
6HR MIN TEMP:  37; 6HR MAX TEMP:  55;

$$

TXZ143>147-156>162-174-175-221900-
CENTRAL TEXAS

CITY           SKY/WX    TMP DP  RH WIND       PRES   REMARKS
WACO           FAIR      58  23  26 W17G25    30.10F
6HR MIN TEMP:  35; 6HR MAX TEMP:  58;

WACO-TSTC      SUNNY     57  25  28 NW16      30.11F
WACO-MCGREGOR  FAIR      58  26  29 NW16G22   30.11F
6HR MIN TEMP:  34; 6HR MAX TEMP:  58;

CORSICANA      FAIR      55  29  36 W22       30.09F
6HR MIN TEMP:  40; 6HR MAX TEMP:  55;

MEXIA          FAIR      55  25  30 W15G25    30.09F
6HR MIN TEMP:  42; 6HR MAX TEMP:  56;

HEARNE         FAIR      56  29  34 NW14G21   30.13F
6HR MIN TEMP:  41; 6HR MAX TEMP:  56;

CAMERON        FAIR      58  26  29 NW13G24   30.13F
6HR MIN TEMP:  42; 6HR MAX TEMP:  58;

TEMPLE         FAIR      58  23  26 NW21G28   30.11F
6HR MIN TEMP:  39; 6HR MAX TEMP:  58;

KILLEEN        FAIR      58  18  21 NW15      30.11F
6HR MIN TEMP:  42; 6HR MAX TEMP:  58;

KILLEEN-SKYLRK FAIR      58  20  22 NW13G21   30.13F
6HR MIN TEMP:  42; 6HR MAX TEMP:  58;

FORT HOOD      FAIR      59  19  21 NW20G26   30.08F
6HR MIN TEMP:  39; 6HR MAX TEMP:  59;

GATESVILLE     FAIR      57  19  23 NW15G22   30.13F
HAMILTON       FAIR      56  20  24 NW26G35   30.11F
6HR MIN TEMP:  41; 6HR MAX TEMP:  57;

LAMPASAS       FAIR      56  20  24 W10G18    30.12F
6HR MIN TEMP:  40; 6HR MAX TEMP:  56;

$$

TXZ095>097-106>112-122>126-135>138-148>153-164>167-221900-
EAST TEXAS

CITY           SKY/WX    TMP DP  RH WIND       PRES   REMARKS
PARIS          FAIR      50  30  46 W21G31    29.95F
6HR MIN TEMP:  39; 6HR MAX TEMP:  50;

SULPHUR SPRNGS FAIR      52  29  41 W21G32    30.01F
6HR MIN TEMP:  43; 6HR MAX TEMP:  52;

MOUNT PLEASANT FAIR      53  29  38 W23       30.00F
6HR MIN TEMP:  44; 6HR MAX TEMP:  54;

GILMER         FAIR      53  28  37 W9G22     30.00F
6HR MIN TEMP:  45; 6HR MAX TEMP:  53;

MINEOLA        FAIR      54  27  35 W13G20    30.02F
TYLER          FAIR      56  27  32 W10G24    30.03F
6HR MIN TEMP:  45; 6HR MAX TEMP:  56;

LONGVIEW       FAIR      56  33  42 W15G24    30.00F
6HR MIN TEMP:  48; 6HR MAX TEMP:  56;

MARSHALL       FAIR      55  27  34 W12G21    30.01F
6HR MIN TEMP:  47; 6HR MAX TEMP:  55; 6HR PCP:  0.01;

ATHENS         FAIR      52  25  35 W9G21     30.05F
PALESTINE      FAIR      55  27  34 W17G28    30.09F
JACKSONVILLE   FAIR      55  28  34 W10G21    30.06F
CENTER         FAIR      59  24  26 W13G23    30.02F
6HR MIN TEMP:  51; 6HR MAX TEMP:  59;

NACOGDOCHES    FAIR      58  28  32 W17       30.05S
6HR MIN TEMP:  51; 6HR MAX TEMP:  59;

LUFKIN         FAIR      60  28  29 W14       30.05F
6HR MIN TEMP:  51; 6HR MAX TEMP:  60;

$$

SUPPLEMENTAL OBSERVATIONS (NWS FORT WORTH AREA)

CITY           SKY/WX    TMP DP  RH WIND       PRES   REMARKS
DENISON DAM      N/A     48  27  43 W7          N/A
CADDO GRASSLND   N/A     52  27  37 W14G26      N/A
PAT MAYSE LAKE   N/A     48  27  43 SW22        N/A
GREENVILLE       N/A     52  27  37 W23G32      N/A
CEDAR HILL       N/A     57  25  28 W8G17       N/A
LBJ GRASSLAND    N/A     54  21  28 W17G30      N/A
POSSUM KINGDOM   N/A     55  21  26 W21G30      N/A



USA.gov is the U.S. government's official web portal to all federal, state and local government web resources and services.